{"data":{"norad_id":65836,"intl_designator":"2025-221P","name":"STARLINK-35356","alt_names":[],"object_type":"PAYLOAD","status":"ACTIVE","operator":null,"country":"US","launch_date":"2025-09-29","launch_site_code":"AFWTR","launch_vehicle":null,"mission":null,"orbit_class":"UNKNOWN","rcs_meters":null,"size_class":null,"mass_kg":null,"dimensions":null,"purposes":["comms"],"wikipedia_slug":null,"has_3d_model":false,"image_url":null,"decayed_at":null,"tle_current":{"epoch":"2026-05-25T02:14:56.918112Z","epoch_age_seconds":70094,"freshness":"FRESH","line1":"1 65836U 25221P   26145.09371433  .00009590  00000+0  33542-3 0  9990","line2":"2 65836  53.1580  93.2754 0000984 100.7828 259.3283 15.30206072 36433","mean_motion":15.30206072,"eccentricity":9.84e-5,"inclination_deg":53.158,"raan_deg":93.2754,"arg_perigee_deg":100.7828,"mean_anomaly_deg":259.3283,"bstar":0.00033542,"rev_number":3643,"period_min":94.10497228768,"perigee_km":474.5225715221,"apogee_km":475.87130764142,"semimajor_km":6853.3339395818,"source":"CELESTRAK","updated_at":"2026-05-25T13:38:20.944685Z"}}}